Regional Weather Roundup
Issued by NWS Cleveland, OH

Home | Current Version | Previous Version | Graphics & Text | Print | Product List | Glossary On
Versions: 1 2 3 4 5 6 7 8 9 10 11 12 13 14 15 16 17 18 19 20 21 22 23 24 25 26 27 28 29 30 31 32 33 34 35 36 37 38 39 40 41 42 43 44 45 46 47 48 49 50
074
ASUS41 KCLE 220202
RWRCLE
OHIO REGIONAL WEATHER ROUNDUP
NATIONAL WEATHER SERVICE CLEVELAND, OH
1000 PM EDT MON AUG 21 2017

NOTE: "FAIR" INDICATES FEW OR NO CLOUDS BELOW 12,000 FEET WITH NO
SIGNIFICANT WEATHER AND/OR OBSTRUCTIONS TO VISIBILITY.

OHZ001>008-015>018-024>027-034-035-043-044-220300-
   NORTHWEST OHIO

CITY           SKY/WX    TMP DP  RH WIND       PRES   REMARKS
DEFIANCE       PTCLDY    77  71  82 S8        30.01F
FINDLAY        PTCLDY    75  68  78 S7        30.03S
TOLEDO EXPRESS PTCLDY    78  73  84 SW6       30.00F
TOLEDO EXEC    PTCLDY    79  74  84 S8        30.02S
LIMA           CLOUDY    75  72  90 S6        30.06S
$$

OHZ009>014-019>023-028>033-038-089-220300-
   NORTHEAST OHIO

CITY           SKY/WX    TMP DP  RH WIND       PRES   REMARKS
CLE-HOPKINS    PTCLDY    82  69  64 S6        30.07R
CLE-LAKEFRONT  PTCLDY    82  68  62 S10       30.04R
CUY CO. ARPT   PTCLDY    81  68  65 S7        30.06S
LORAIN-ELYRIA  PTCLDY    75  66  73 SW6       30.06R
ASHTABULA      CLEAR     73  70  90 S5        30.08S
AKRON-CANTON   PTCLDY    79  69  71 S7        30.10R
WOOSTER        CLEAR     73  69  87 S3        30.10R
MANSFIELD      CLEAR     77  69  76 SW9       30.09R
YOUNGSTOWN     MOCLDY    76  71  85 S6        30.10R
$$

OHZ042-051>053-060>062-070>072-077>081-220300-
  SOUTHWEST OHIO

CITY           SKY/WX    TMP DP  RH WIND       PRES   REMARKS
CINC-COVINGTON CLOUDY    78  72  81 S6        30.09S
CINC-LUNKEN    PTCLDY    77  73  87 CALM      30.09R
HAMILTON       CLOUDY    78  71  79 S3        30.09R
DAYTON         MOCLDY    79  67  66 SW9       30.10R
WRIGHT-PAT AFB PTCLDY    77  68  73 CALM      30.08S
DAYTON GENERAL MOCLDY    77  68  73 S6        30.09R
WILMINGTON     MOCLDY    75  71  87 S5        30.10S
$$

OHZ036-037-039>041-045>050-054>059-063>069-073>076-082>088-220300-
  CENTRAL AND SOUTHEAST OHIO

CITY           SKY/WX    TMP DP  RH WIND       PRES   REMARKS
COLUMBUS       CLOUDY    81  69  67 S6        30.09R
OSU AIRPORT    CLOUDY    80  70  71 S7        30.08S
BOLTON FIELD   PTCLDY    78  70  76 S7        30.09S
RICKENBACK AFB PTCLDY    77  70  77 S8        30.08F
NEWARK         CLEAR     77  71  82 SW3       30.09S
MARION         PTCLDY    76  70  82 S8        30.08S
LANCASTER      CLOUDY    78  70  76 S6        30.11S
ZANESVILLE     CLEAR     77  70  79 S5        30.11S
NEW PHILLY     NOT AVBL
$$




USA.gov is the U.S. government's official web portal to all federal, state and local government web resources and services.